Погода в Галабе

Узбекистан     40°29′41″N   68°19′01″E
темп.,
°C
ветер,
м/с
пор.,
м/с
влажн.,
%
обл.,
%
осадки,
мм/ч
давл.,
гПа
погр.,
м
1 марта, пн
пн123:00+7вюв7153867 0.0 1021413
02:00+6юв61439100 0.0 1021338
05:00+5вюв5124189 0.0 1021232
08:00+6юв510410 0.0 1021187
11:00+12юв711280 0.0 1020410
14:00+16вюв68230 0.0 1019482
17:00+16вюв610250 0.0 1018425
20:00+11вюв611330 0.0 1020179
2 марта, вт
вт223:00+10юв57360 0.0 1022121
02:00+9юв3438100 0.0 102246
05:00+9ююв233998 0.0 102225
08:00+9сз1141100 0.0 102322
11:00+13с2330100 0.0 1022381
14:00+16ссз1224100 0.0 1021654
17:00+15сз3429100 0.0 1021733
20:00+12ссз4840100 0.0 1023266
3 марта, ср
ср323:00+10с3645100 0.0 1024254
02:00+8ссз2455100 0.0 1024125
05:00+6с2566100 0.0 1024228
08:00+6ссв116898 0.0 1024203
11:00+9ссз114996 0.0 1023537
14:00+13ссв114278 0.0 1021863
17:00+13ююв224289 0.0 10201192
20:00+11юв4670100 0.1 1021331
4 марта, чт
чт423:00+11юв697199 0.1 1021376
02:00+9юв48680 0.0 1019215
05:00+9юв714690 0.0 1019354
08:00+9юв814680 0.1 1019365
11:00+14юв7115045 0.3 1017526
14:00+17ююв673793 0.1 10171493
17:00+15юз235292 1.2 1018711
20:00+12юв486967 1.1 1020254
5 марта, пт
пт523:00+11зсз7155768 1.4 1022569
02:00+8ссз7106877 0.0 1024840
05:00+3ссз579488 5.3 1027413
08:00+2ю2295100 6.8 1030148
11:00+5юв3381100 6.9 1029454
14:00+8в345643 0.0 1025913
17:00+9всв244722 0.0 10241042
20:00+8св225580 0.0 102328